Regional Weather Roundup
Issued by NWS Newport/Morehead, NC

Current Version | Previous Version | Text Only | Print | Product List | Glossary On
Versions: 1 2 3 4 5 6 7 8 9 10 11 12 13 14 15 16 17 18 19 20 21 22 23 24 25 26 27 28 29 30 31 32 33 34 35 36 37 38 39 40 41 42 43 44 45 46 47 48 49 50
000
ASUS42 KMHX 231413
RWRMHX
WEATHER ROUNDUP FOR EASTERN NORTH CAROLINA
NATIONAL WEATHER SERVICE NEWPORT/MOREHEAD CITY NC
900 AM EST THU NOV 23 2017

NOTE: "FAIR" INDICATES FEW OR NO CLOUDS BELOW 12,000 FEET
WITH NO SIGNIFICANT WEATHER AND/OR OBSTRUCTIONS TO VISIBILITY

NCZ015>017-031-032-045>047-102-103-231500-
NORTH COAST

CITY           SKY/WX    TMP DP  RH WIND       PRES   REMARKS
EDENTON        MOSUNNY   41  33  74 N8        30.17S
ELIZABETH CITY CLOUDY    43  35  73 N13       30.16S
KITTY HAWK     PTSUNNY   48  37  65 NE3       30.13S
MANTEO         MOSUNNY   49  38  65 NE10      30.14S

$$

NCZ045>047-081-094-103-104-231500-
CENTRAL COAST

CITY           SKY/WX    TMP DP  RH WIND       PRES   REMARKS
FRISCO         PTSUNNY   52  43  71 VRB6      30.12S

$$

NCZ095-097-098-100-101-231500-
SOUTHERN COAST

CITY           SKY/WX    TMP DP  RH WIND       PRES   REMARKS
BEAUFORT       MOSUNNY   49  41  74 N10       30.13S
CEDAR ISLAND   NOT AVBL
JACKSONVILLE   MOSUNNY   44  36  73 N10       30.15R
PINEY ISLAND     N/A    N/A N/A N/A N15       30.13
WILMINGTON     CLOUDY    45  35  68 NE9       30.14R


$$

NCZ011>013-027>030-043-044-078>080-089-090>093-098-231500-
COASTAL PLAIN

CITY           SKY/WX    TMP DP  RH WIND       PRES   REMARKS
AHOSKIE        SUNNY     35  27  71 N9        30.20R
CLINTON        MOSUNNY   42  32  68 NE6       30.16F
ELIZABETHTOWN  NOT AVBL
GOLDSBORO      CLOUDY    40  28  62 N9        30.16S
GREENVILLE     SUNNY     37  30  75 N7        30.19S
HAVELOCK       CLOUDY    44  38  79 NE10      30.15R
KENANSVILLE    PTSUNNY   41  30  65 N10       30.17R
KINSTON        MOSUNNY   39  30  70 N9        30.17S
NEW BERN       CLOUDY    40  35  83 NE9       30.17R
RICHLANDS      PTSUNNY   42  32  67 N8        30.17R
ROCKY MOUNT    SUNNY     38  29  70 NE7       30.20R
WASHINGTON     CLOUDY    40  31  71 N9        30.17S
WHITEVILLE     MOSUNNY   43  32  65 NE6       30.13S

$$

AMZ130-135-150-152-154-156-158-170-250-252-270-ANZ085-086-088-633-658-670-231500-
MARINE OBSERVATIONS

STATION/POSITION TIME  TEMP    WIND        PRES    WAVE   SWELL
                       AIR SEA DIR/SP/G            HT/PER HT/PER
                 (UTC) (F)     (DEG/KT/KT) (MB)    (FT/S) (FT/S)
CHESAPEAKE LIGHT NOT AVBL
64 E VA BEACH    1350   48 60  350/ 10/ 12 1020.8    7/ 8   7/ 8
DUCK             1348   47 58   10/ 13/ 16 1020.2
2 E DUCK         1400      60                N/A     4/ 9   2/11
OREGON INLET     1336   49 59   20/ 10/ 13 1020.2
13E OREGON INLT  1348      63                N/A     5/10   5/10
HATTERAS CG      1348   51 58   30/ 10/ 15 1019.6
DIAMOND BUOY     1400   56 71   10/ 14/ 19 1019.2
CAPE LOOKOUT     1400           10/ 14/ 16 1020.2
BEAUFORT LAB     1348   47 59   20/ 10/ 14 1020.2
30 SE NEW RVR IN 1308   54 66   50/ 14/ 19 1019.3
30 SE NEW RVR IN 1400      67                N/A     6/ 9   2/11
27 SE WRIGHTSVLE 1308   55 70   50/ 17/ 25 1019.0
5 SE WRIGHTSVLE  1308   50 63   50/ 14/ 19 1019.2
225 S CAPE HAT   1350   71 76   40/ 16/ 19 1015.6    8/ 9   5/ 9
41 SE CHARLESTON 1400   66 75   50/ 17/ 21 1016.7

$$




USA.gov is the U.S. government's official web portal to all federal, state and local government web resources and services.